Back to catalog

XINGCHI-1 02B

AliveScienceSSO
NORAD 58498·PAYLOAD·🇨🇳 China

Launched Dec 4, 2023 from Jiuquan Satellite Launch Center

Loading…

Next Passes (next 24 hours)

TLE

FreshSource: Space-Track

Epoch: Sep 14, 2026, 13:50 UTC

1 58498U 23187C   26257.57694905  .00001063  00000-0  12780-3 0  9993
2 58498  97.9256 341.3435 0010024 200.9830 159.0975 14.86021158150453

Track XINGCHI-1 02B in real time with AllMySat

Download on the App Store